Overview Statistics Trail Chart Weather Telemetry Raw packets
 

This is the latest recevied weather packets stored in our database for station/object KA1JKB. If no packets are shown the sender has not sent any weather packets the latest 10 day(s).

<< 83 84 85 86 87 88 89 >>
Time Temp. Humidity Pressure Rain* Wind** Luminosity Snow
1787829698 15.56° C 99% 1010.8 hPa 0 mm - 18 W/m² -
1787829393 15.56° C 99% 1010.9 hPa 0 mm - 13 W/m² -
1787829089 15° C 99% 1011 hPa 0 mm - 9 W/m² -
1787828784 15° C 99% 1010.8 hPa 0 mm - 6 W/m² -
1787828481 13.89° C 99% 1010.9 hPa 0 mm - 4 W/m² -
1787828180 13.89° C 99% 1010.7 hPa 0 mm - 1 W/m² -
1787827879 13.89° C 99% 1011 hPa 0 mm - 0 W/m² -
1787827580 13.33° C 99% 1010.8 hPa 0 mm - 0 W/m² -
1787827275 13.33° C 99% 1010.5 hPa 0 mm - 0 W/m² -
1787826974 13.33° C 99% 1010.5 hPa 0 mm - 0 W/m² -
1787826674 13.89° C 99% 1010.7 hPa 0 mm - 0 W/m² -
1787826369 13.89° C 99% 1010.6 hPa 0 mm - 0 W/m² -
1787826066 14.44° C 99% 1010.5 hPa 0 mm - 0 W/m² -
1787825764 14.44° C 99% 1010.5 hPa 0 mm - 0 W/m² -
1787825463 14.44° C 99% 1010.3 hPa 0 mm - 0 W/m² -
1787825163 13.89° C 99% 1010.3 hPa 0 mm - 0 W/m² -
1787824860 14.44° C 99% 1010.4 hPa 0 mm - 0 W/m² -
1787824559 13.89° C 99% 1010.4 hPa 0 mm - 0 W/m² -
1787824254 13.89° C 99% 1010.3 hPa 0 mm - 0 W/m² -
1787823951 13.89° C 99% 1010.2 hPa 0 mm - 0 W/m² -
1787823645 13.89° C 99% 1010.2 hPa 0 mm - 0 W/m² -
1787823339 14.44° C 99% 1010.4 hPa 0 mm - 0 W/m² -
1787823034 14.44° C 99% 1010 hPa 0 mm - 0 W/m² -
1787822733 15° C 99% 1010.2 hPa 0 mm - 0 W/m² -
1787822427 15.56° C 99% 1010.2 hPa 0 mm - 0 W/m² -

* Rain latest hour (hover to see other rain measurements)
** Current wind speed in m/s (hover to see current wind gust speed)